[[{"header":{"parameterUnit":"m.s-1","parameterCategory":1,"la1":30.2991,"la2":30.254,"lo1":-89.0895,"lo2":-89.0444,"dy":0.0017,"dx":0.0017,"nx":28,"ny":28,"refTime":"2025-12-11T09:00:00:Z","depth":0,"parameterNumber":2,"parameterNumberName":"U-component_of_WINDS"},"data":[0,0,0,0,0,0,0,0,0,0,0,0,0,0,0,0,0,0,0,0,0,0,0,0,0,0,0,0,0,0,0,0,0,0,0,0,0,0,0,0,0,0,0,0,0,0,0,0,0,0,0,0,0,0,0,0,0,0,-1.1097,-1.1096,0,-1.0942,-1.0941,-1.0939,-1.0846,-1.0845,-1.0845,-1.0844,-1.0681,-1.0677,-1.0673,0,0,0,0,0,0,0,0,0,0,0,0,0,-1.1307,-1.1304,-1.1097,-1.1095,-1.1094,-1.0943,-1.0941,-1.0938,-1.0846,-1.0845,-1.0845,-1.0844,-1.0682,-1.0677,-1.0673,0,0,0,0,0,0,0,0,0,0,0,0,0,-1.1191,-1.1303,-1.1098,-1.1029,-1.1022,-1.0943,-1.0941,-1.0938,-1.0846,-1.0845,-1.0845,-1.0844,-1.0684,-1.0678,-1.0672,-1.0648,0,0,-1.0654,-1.0651,0,0,0,0,0,0,0,0,-1.1198,-1.1183,-1.1041,-1.1034,-1.1025,-1.0913,-1.0955,-1.0841,-1.0846,-1.0912,-1.0844,-1.0844,-1.0758,-1.0746,-1.0718,-1.0641,-1.0634,-1.0653,-1.065,-1.0647,-1.0646,0,0,0,0,0,0,0,-1.1206,-1.1189,-1.1036,-1.1039,-1.1029,-1.1004,-1.0987,-1.0933,-1.0841,-1.0907,-1.09,-1.0883,-1.0754,-1.0724,-1.0714,-1.0631,-1.0654,-1.0648,-1.0645,-1.0642,-1.0524,-1.0524,0,0,0,0,0,0,-1.1225,-1.1197,-1.1041,-1.1031,-1.1112,-1.1001,-1.0982,-1.0949,-1.0841,-1.0824,-1.0883,-1.0879,-1.0735,-1.0721,-1.0708,-1.0671,-1.0647,-1.0642,-1.0638,-1.0524,-1.0524,-1.0525,0,0,0,0,0,0,-1.123,-1.1212,-1.1047,-1.1112,-1.1089,-1.0998,-1.0963,-1.0947,-1.0917,-1.0824,-1.0806,-1.0871,-1.0734,-1.0716,-1.0664,-1.0664,-1.0639,-1.0634,-1.0523,-1.0524,-1.0524,-1.0599,0,0,0,0,0,0,-1.1237,-1.1215,-1.1206,-1.1113,-1.1086,-1.1007,-1.0963,-1.0944,-1.0908,-1.0901,-1.0807,-1.0791,-1.0732,-1.0673,-1.0658,-1.0656,-1.0629,-1.0523,-1.0523,-1.0524,-1.0596,-1.0602,-1.0608,0,0,0,0,0,-1.1245,-1.1233,-1.1206,-1.1188,-1.1073,-1.1008,-1.0992,-1.0926,-1.0908,-1.0898,-1.0837,-1.0794,-1.0667,-1.0668,-1.065,-1.0647,-1.0522,-1.0523,-1.0524,-1.0594,-1.0601,-1.0607,0,0,0,0,0,0,-1.1327,-1.1219,-1.1188,-1.1146,-1.1087,-1.0992,-1.0977,-1.0936,-1.088,-1.0875,-1.0794,-1.0773,-1.0729,-1.0682,-1.0686,-1.0617,-1.059,-1.0587,-1.0649,-1.0655,-1.0661,-1.0672,-1.0624,0,0,0,0,0,-1.134,-1.1298,-1.1205,-1.1177,-1.1149,-1.1069,-1.1037,-1.0992,-1.0926,-1.09,-1.0836,-1.0773,-1.0718,-1.0684,-1.0629,-1.059,-1.0567,-1.0578,-1.0584,-1.0589,-1.0587,-1.056,-1.0564,-1.0528,-1.0528,-1.0528,0,0,-1.1367,-1.1303,-1.1281,-1.1192,-1.114,-1.1096,-1.1048,-1.1003,-1.0969,-1.0893,-1.0839,-1.079,-1.0714,-1.0668,-1.0644,-1.0628,-1.0592,-1.059,-1.0595,-1.059,-1.0562,-1.0565,-1.0569,-1.0528,-1.0528,-1.0528,0,0,-1.1393,-1.1341,-1.1311,-1.1261,-1.1185,-1.1131,-1.1125,-1.1036,-1.1,-1.0946,-1.0888,-1.0845,-1.0754,-1.0702,-1.0663,-1.067,-1.0626,-1.0654,-1.0683,-1.0658,-1.0661,-1.0663,-1.0664,-1.0665,-1.0653,-1.0653,-1.0653,0,-1.1436,-1.1368,-1.1301,-1.1259,-1.1221,-1.1152,-1.112,-1.1074,-1.0983,-1.0957,-1.0941,-1.0824,-1.0768,-1.0708,-1.071,-1.0681,-1.0669,-1.0663,-1.0666,-1.0668,-1.0669,-1.0668,-1.0669,-1.0657,-1.0656,-1.0656,-1.0655,0,-1.1424,-1.1378,-1.1362,-1.1278,-1.1238,-1.1202,-1.1126,-1.1094,-1.1052,-1.1,-1.0944,-1.0875,-1.0804,-1.0786,-1.0744,-1.072,-1.0712,-1.0682,-1.0653,-1.0677,-1.0675,-1.0675,-1.0662,-1.0661,-1.0659,-1.0659,0,0,-1.1496,-1.1375,-1.137,-1.1331,-1.1241,-1.1203,-1.1163,-1.1096,-1.1068,-1.1008,-1.0971,-1.0895,-1.0867,-1.0824,-1.0775,-1.0754,-1.0761,-1.0726,-1.0723,-1.0734,-1.0728,-1.0749,-1.075,-1.0733,-1.0733,-1.0732,-1.0733,0,-1.1508,-1.1434,-1.1372,-1.132,-1.1275,-1.1209,-1.1174,-1.1114,-1.1064,-1.1018,-1.0962,-1.0909,-1.0877,-1.085,-1.0827,-1.0766,-1.0759,-1.0765,-1.0695,-1.0694,-1.0715,-1.075,-1.0772,-1.0777,-1.0732,-1.0732,-1.0732,0,-1.1511,-1.1455,-1.14,-1.1314,-1.1293,-1.1263,-1.1195,-1.1152,-1.1083,-1.1048,-1.1,-1.0949,-1.0901,-1.0878,-1.081,-1.0816,-1.0784,-1.075,-1.0748,-1.0737,-1.0713,-1.0738,-1.0777,-1.0777,-1.0731,-1.0731,-1.0731,0,-1.1568,-1.1478,-1.1433,-1.1401,-1.1301,-1.1281,-1.1237,-1.1167,-1.113,-1.1071,-1.1045,-1.0981,-1.0945,-1.0895,-1.0828,-1.0818,-1.0766,-1.0738,-1.0734,-1.0736,-1.0725,-1.0726,-1.0757,-1.0707,-1.0707,-1.0707,-1.0707,0,-1.1587,-1.1555,-1.1457,-1.1429,-1.1391,-1.1319,-1.1282,-1.1233,-1.1171,-1.1131,-1.107,-1.1033,-1.0947,-1.0899,-1.0846,-1.0797,-1.0781,-1.075,-1.0736,-1.0755,-1.0759,-1.0731,-1.0729,-1.0707,-1.0707,-1.0707,-1.0707,0,-1.1643,-1.1576,-1.1522,-1.1432,-1.1408,-1.1384,-1.1306,-1.1275,-1.1222,-1.1172,-1.1156,-1.1072,-1.1013,-1.0941,-1.0858,-1.0822,-1.0777,-1.0757,-1.0802,-1.0793,-1.0793,-1.0793,-1.0805,-1.0802,-1.0758,-1.0758,-1.0759,0,-1.1658,-1.1632,-1.154,-1.1509,-1.1468,-1.142,-1.1382,-1.131,-1.1273,-1.1191,-1.117,-1.1106,-1.1051,-1.0959,-1.089,-1.0826,-1.0802,-1.0811,-1.0792,-1.0811,-1.08,-1.0802,-1.0798,-1.0816,-1.0817,-1.0817,-1.0818,0,-1.1692,-1.1661,-1.161,-1.1547,-1.1504,-1.1451,-1.1394,-1.1372,-1.1288,-1.1249,-1.1189,-1.1146,-1.1062,-1.0999,-1.0926,-1.0879,-1.0834,-1.0825,-1.082,-1.0838,-1.0864,-1.0848,-1.0813,-1.0824,-1.0824,-1.0823,-1.0823,-1.0823,-1.1727,-1.1701,-1.1631,-1.1576,-1.1526,-1.1475,-1.1442,-1.1385,-1.1334,-1.1261,-1.1221,-1.1161,-1.109,-1.0988,-1.0943,-1.0893,-1.0877,-1.0871,-1.0869,-1.0868,-1.0873,-1.0874,-1.088,-1.088,-1.0879,-1.0879,-1.0879,0,-1.1756,-1.1709,-1.1659,-1.1583,-1.1539,-1.1502,-1.1438,-1.1403,-1.1352,-1.1291,-1.1238,-1.1168,-1.1106,-1.1032,-1.0965,-1.0939,-1.0917,-1.0924,-1.0924,-1.0914,-1.0892,-1.0902,-1.0943,-1.0943,-1.0943,-1.0943,-1.0943,-1.0943,-1.1767,-1.1719,-1.168,-1.1606,-1.1558,-1.15,-1.1466,-1.1418,-1.1369,-1.1293,-1.1242,-1.1195,-1.1128,-1.1056,-1.0997,-1.0976,-1.0954,-1.0967,-1.094,-1.0921,-1.0915,-1.091,-1.0919,-1.0963,-1.0963,-1.0965,-1.0966,-1.0966]},{"header":{"parameterUnit":"m.s-1","parameterCategory":1,"la1":30.2991,"la2":30.254,"lo1":-89.0895,"lo2":-89.0444,"dy":0.0017,"dx":0.0017,"nx":28,"ny":28,"refTime":"2025-12-11T09:00:00:Z","depth":0,"parameterNumber":3,"parameterNumberName":"V-component_of_WINDS"},"data":[0,0,0,0,0,0,0,0,0,0,0,0,0,0,0,0,0,0,0,0,0,0,0,0,0,0,0,0,0,0,0,0,0,0,0,0,0,0,0,0,0,0,0,0,0,0,0,0,0,0,0,0,0,0,0,0,0,0,0.0022,0.0022,0,0.0023,0.0023,0.0023,0.0018,0.0018,0.0018,0.0018,0.0019,0.002,0.002,0,0,0,0,0,0,0,0,0,0,0,0,0,0.002,0.002,0.0022,0.0022,0.0022,0.0023,0.0023,0.0023,0.0018,0.0018,0.0018,0.0017,0.0019,0.0019,0.002,0,0,0,0,0,0,0,0,0,0,0,0,0,0.0021,0.002,0.0022,0.002,0.002,0.0023,0.0023,0.0023,0.0018,0.0018,0.0018,0.0017,0.0019,0.0019,0.002,0.0025,0,0,0.0021,0.0021,0,0,0,0,0,0,0,0,0.0021,0.0021,0.002,0.002,0.002,0.002,0.0022,0.0024,0.0018,0.0019,0.0018,0.0017,0.002,0.002,0.0021,0.0025,0.0025,0.0021,0.0021,0.0021,0.0021,0,0,0,0,0,0,0,0.0021,0.0021,0.0022,0.002,0.002,0.002,0.002,0.0023,0.002,0.0019,0.0018,0.0018,0.002,0.002,0.0021,0.0025,0.0021,0.0021,0.0021,0.0021,0.0037,0.0037,0,0,0,0,0,0,0.0021,0.0021,0.0022,0.0022,0.002,0.002,0.002,0.002,0.002,0.002,0.0018,0.0018,0.002,0.002,0.0021,0.0028,0.0021,0.0021,0.0021,0.0036,0.0037,0.0037,0,0,0,0,0,0,0.0021,0.0021,0.0022,0.0021,0.0022,0.002,0.0021,0.002,0.0021,0.002,0.002,0.0019,0.002,0.002,0.0024,0.0028,0.0021,0.0021,0.0036,0.0037,0.0037,0.0043,0,0,0,0,0,0,0.002,0.0021,0.0022,0.0022,0.0022,0.0025,0.0021,0.002,0.0021,0.0021,0.0021,0.0021,0.002,0.0024,0.0025,0.0028,0.0022,0.0036,0.0036,0.0037,0.0042,0.0043,0.0044,0,0,0,0,0,0.002,0.0024,0.0022,0.0022,0.0023,0.0026,0.0026,0.0024,0.0021,0.0023,0.0023,0.0021,0.0028,0.0025,0.0025,0.0029,0.0036,0.0036,0.0037,0.0042,0.0043,0.0044,0,0,0,0,0,0,0.0025,0.0024,0.0022,0.0025,0.0025,0.0025,0.0027,0.0025,0.0027,0.0026,0.0024,0.0025,0.0029,0.003,0.0026,0.0035,0.0031,0.0032,0.0035,0.0036,0.0037,0.0037,0.0022,0,0,0,0,0,0.0026,0.0028,0.0027,0.0029,0.003,0.0028,0.0029,0.0028,0.0029,0.0029,0.0029,0.003,0.0033,0.0034,0.0037,0.0042,0.0043,0.0046,0.0047,0.0047,0.0048,0.0053,0.0054,0.0039,0.0039,0.0039,0,0,0.0029,0.0028,0.0029,0.003,0.0031,0.0033,0.0029,0.0031,0.0033,0.0029,0.0033,0.0034,0.0035,0.0041,0.0043,0.0041,0.0053,0.0048,0.0049,0.0049,0.0054,0.0055,0.0056,0.0039,0.0039,0.0039,0,0,0.0035,0.0035,0.0038,0.0038,0.0039,0.0038,0.0039,0.0039,0.0039,0.0043,0.0041,0.0044,0.0047,0.0049,0.005,0.0059,0.0058,0.006,0.0065,0.007,0.0071,0.0072,0.0077,0.0078,0.0061,0.0061,0.0061,0,0.0039,0.0042,0.0039,0.0042,0.0043,0.004,0.0044,0.0045,0.0046,0.0047,0.0045,0.0051,0.0052,0.0058,0.0061,0.0061,0.0063,0.006,0.0071,0.0072,0.0073,0.0077,0.0079,0.0061,0.0061,0.0061,0.0061,0,0.0047,0.0049,0.0051,0.0053,0.0054,0.0057,0.0057,0.0058,0.0057,0.0057,0.0063,0.0063,0.0066,0.0068,0.0067,0.0075,0.0074,0.0071,0.0067,0.0075,0.0079,0.008,0.0062,0.0061,0.0061,0.0061,0,0,0.0055,0.0056,0.0057,0.0058,0.0059,0.0061,0.0065,0.0068,0.007,0.0072,0.0076,0.008,0.0078,0.008,0.0079,0.0083,0.0092,0.008,0.008,0.0083,0.0102,0.0105,0.0106,0.0091,0.0091,0.0091,0.0103,0,0.0062,0.0068,0.0067,0.0073,0.0076,0.0074,0.0077,0.0079,0.0079,0.0083,0.0083,0.0087,0.0084,0.0085,0.0089,0.009,0.0096,0.0089,0.0096,0.0096,0.0096,0.0108,0.011,0.0121,0.0104,0.0104,0.0104,0,0.007,0.0072,0.0079,0.0081,0.0082,0.0085,0.0089,0.0091,0.0094,0.0094,0.0097,0.0096,0.0101,0.0097,0.0105,0.01,0.0103,0.0104,0.0105,0.0106,0.0101,0.0111,0.0124,0.0126,0.0107,0.0106,0.0106,0,0.0077,0.0081,0.0086,0.0087,0.0089,0.0092,0.0093,0.0095,0.0098,0.0101,0.0103,0.0107,0.0109,0.0113,0.0114,0.011,0.0122,0.0118,0.0124,0.0124,0.0126,0.0126,0.0142,0.0127,0.0127,0.0127,0.0127,0,0.0085,0.0089,0.0089,0.0092,0.0098,0.0097,0.0103,0.0104,0.0106,0.011,0.0109,0.0113,0.0113,0.0118,0.0119,0.0126,0.0127,0.0128,0.0129,0.0129,0.0129,0.0131,0.0131,0.0127,0.0127,0.0127,0.0127,0,0.0093,0.0093,0.0099,0.0101,0.0101,0.0105,0.0108,0.0111,0.0112,0.0117,0.0119,0.012,0.0126,0.0127,0.0133,0.0134,0.0143,0.0143,0.0143,0.0143,0.0149,0.0149,0.0167,0.017,0.0152,0.0153,0.0153,0,0.0098,0.0102,0.0105,0.0107,0.0108,0.0112,0.0115,0.0115,0.0118,0.0122,0.0126,0.0131,0.0135,0.0145,0.0147,0.0153,0.0153,0.0159,0.0153,0.0154,0.0154,0.0154,0.0155,0.016,0.016,0.016,0.016,0,0.0108,0.0108,0.0112,0.0116,0.0119,0.0122,0.0125,0.0128,0.0129,0.0132,0.0138,0.0141,0.0149,0.0155,0.0161,0.0163,0.0162,0.0162,0.0164,0.0164,0.0165,0.0166,0.0146,0.0161,0.0161,0.0161,0.0161,0.0161,0.0116,0.0119,0.0122,0.0126,0.0129,0.0132,0.0136,0.0138,0.0142,0.0148,0.0148,0.0155,0.0159,0.0167,0.017,0.0176,0.0174,0.0177,0.0178,0.0178,0.018,0.0163,0.0177,0.0177,0.0177,0.0177,0.0177,0,0.0126,0.0128,0.0132,0.0137,0.0141,0.014,0.0144,0.0147,0.0153,0.0157,0.0162,0.0169,0.0176,0.0179,0.0186,0.019,0.019,0.0192,0.0192,0.0193,0.018,0.0178,0.0192,0.0192,0.0192,0.0192,0.0192,0.0192,0.0132,0.0138,0.0139,0.0148,0.015,0.0156,0.0159,0.0162,0.0166,0.0174,0.0179,0.0182,0.0186,0.0193,0.02,0.0201,0.0204,0.0206,0.0207,0.0195,0.0194,0.0192,0.019,0.0206,0.0206,0.0219,0.0219,0.0219]}]]